UAL143 KLAX-KSFO

Flight info

Callsign UAL143
Flight time 0h 56m
Altitude 30000
Route SUMMR2 STOKD SERFR SERFR4
Aircraft B738/M-SDE2E3FGHIRWXY/LB1

Departure

Time 2026-04-24 03:47
Airport Los Angeles International Airport (KLAX)

Arrival

Time 2026-04-24 04:44
Airport San Francisco International Airport (KSFO)
Time Latitude Longitude Altitude Speed Heading
2026-04-24 03:21 33.94169 -118.39769 94 ft 0 kts 82°
2026-04-24 03:34 33.94166 -118.39788 94 ft 3 kts 81°
2026-04-24 03:34 33.94164 -118.39812 94 ft 3 kts 84°
2026-04-24 03:35 33.94163 -118.39826 94 ft 1 kts 112°
2026-04-24 03:35 33.94168 -118.39835 94 ft 1 kts 159°
2026-04-24 03:35 33.94176 -118.39838 94 ft 1 kts 171°
2026-04-24 03:35 33.94182 -118.39839 93 ft 0 kts 173°
2026-04-24 03:42 33.94175 -118.39838 97 ft 7 kts 172°
2026-04-24 03:42 33.94089 -118.39826 96 ft 13 kts 176°
2026-04-24 03:42 33.93998 -118.39821 98 ft 13 kts 172°
2026-04-24 03:42 33.93918 -118.39776 102 ft 13 kts 125°
2026-04-24 03:43 33.93913 -118.39660 101 ft 17 kts 83°
2026-04-24 03:43 33.93928 -118.39508 102 ft 20 kts 82°
2026-04-24 03:43 33.93948 -118.39322 100 ft 23 kts 83°
2026-04-24 03:43 33.93966 -118.39153 100 ft 18 kts 83°
2026-04-24 03:44 33.93981 -118.38995 101 ft 20 kts 82°
2026-04-24 03:44 33.93998 -118.38827 100 ft 20 kts 83°
2026-04-24 03:44 33.94015 -118.38662 102 ft 19 kts 83°
2026-04-24 03:44 33.94031 -118.38503 102 ft 19 kts 83°
2026-04-24 03:45 33.94047 -118.38349 102 ft 18 kts 83°
2026-04-24 03:45 33.94062 -118.38203 102 ft 18 kts 84°
2026-04-24 03:45 33.94074 -118.38084 102 ft 0 kts 83°
2026-04-24 03:45 33.94074 -118.38082 102 ft 3 kts 83°
2026-04-24 03:46 33.94062 -118.38014 103 ft 10 kts 138°
2026-04-24 03:46 33.93999 -118.38011 108 ft 10 kts 217°
2026-04-24 03:46 33.93979 -118.38089 109 ft 16 kts 263°
2026-04-24 03:46 33.93934 -118.38532 109 ft 90 kts 263°
2026-04-24 03:47 33.93830 -118.39545 116 ft 150 kts 261°
2026-04-24 03:47 33.93687 -118.40862 642 ft 164 kts 261°
2026-04-24 03:47 33.93536 -118.42308 1245 ft 185 kts 263°
2026-04-24 03:47 33.93376 -118.43884 2143 ft 189 kts 264°
2026-04-24 03:48 33.93212 -118.45557 2663 ft 211 kts 264°
2026-04-24 03:48 33.93047 -118.47428 2928 ft 241 kts 265°
2026-04-24 03:48 33.92874 -118.49522 3522 ft 257 kts 264°
2026-04-24 03:48 33.92697 -118.51693 4355 ft 263 kts 265°
2026-04-24 03:49 33.92516 -118.53899 4838 ft 268 kts 264°
2026-04-24 03:49 33.92334 -118.56108 5665 ft 271 kts 264°
2026-04-24 03:49 33.92145 -118.58394 6506 ft 277 kts 264°
2026-04-24 03:49 33.91956 -118.60661 7464 ft 273 kts 264°
2026-04-24 03:50 33.91772 -118.62924 8396 ft 274 kts 266°
2026-04-24 03:50 33.91711 -118.65154 9217 ft 277 kts 270°
2026-04-24 03:50 33.91714 -118.67466 10159 ft 275 kts 270°
2026-04-24 03:50 33.91725 -118.69823 10640 ft 293 kts 270°
2026-04-24 03:51 33.91732 -118.72379 10822 ft 317 kts 270°
2026-04-24 03:51 33.91730 -118.75110 11223 ft 332 kts 270°
2026-04-24 03:51 33.91721 -118.77914 11943 ft 336 kts 270°
2026-04-24 03:51 33.91709 -118.80728 12793 ft 336 kts 270°
2026-04-24 03:52 33.91696 -118.83544 13610 ft 337 kts 270°
2026-04-24 03:52 33.91748 -118.86376 14311 ft 340 kts 272°
2026-04-24 03:52 33.91848 -118.89234 14973 ft 343 kts 272°
2026-04-24 03:52 33.91951 -118.92108 15660 ft 345 kts 272°
2026-04-24 03:53 33.92044 -118.95009 16342 ft 348 kts 272°
2026-04-24 03:53 33.92132 -118.97929 17015 ft 350 kts 272°
2026-04-24 03:53 33.92338 -119.00860 17652 ft 354 kts 281°
2026-04-24 03:53 33.93191 -119.03654 18281 ft 360 kts 296°
2026-04-24 03:54 33.94492 -119.06251 18877 ft 363 kts 300°
2026-04-24 03:54 33.95850 -119.08778 19441 ft 366 kts 300°
2026-04-24 03:54 33.97235 -119.11370 19969 ft 370 kts 300°
2026-04-24 03:54 33.98611 -119.14002 20479 ft 374 kts 299°
2026-04-24 03:55 33.99992 -119.16673 20993 ft 377 kts 300°
2026-04-24 03:55 34.01624 -119.19175 21480 ft 386 kts 314°
2026-04-24 03:55 34.03752 -119.21185 22015 ft 391 kts 320°
2026-04-24 03:55 34.05989 -119.23091 22520 ft 395 kts 321°
2026-04-24 03:56 34.08255 -119.24985 22996 ft 399 kts 321°
2026-04-24 03:56 34.10543 -119.26902 23456 ft 402 kts 321°
2026-04-24 03:56 34.12842 -119.28844 23870 ft 405 kts 321°
2026-04-24 03:56 34.15147 -119.30809 24307 ft 406 kts 321°
2026-04-24 03:57 34.17452 -119.32786 24737 ft 408 kts 320°
2026-04-24 03:57 34.19765 -119.34778 25161 ft 409 kts 320°
2026-04-24 03:57 34.22086 -119.36779 25618 ft 410 kts 320°
2026-04-24 03:57 34.24399 -119.38776 26195 ft 407 kts 320°
2026-04-24 03:58 34.26693 -119.40757 26812 ft 403 kts 320°
2026-04-24 03:58 34.28964 -119.42721 27379 ft 401 kts 320°
2026-04-24 03:58 34.31230 -119.44681 27897 ft 400 kts 320°
2026-04-24 03:58 34.33488 -119.46638 28429 ft 399 kts 320°
2026-04-24 03:59 34.35736 -119.48586 28991 ft 396 kts 319°
2026-04-24 03:59 34.37970 -119.50523 29529 ft 394 kts 319°
2026-04-24 03:59 34.40172 -119.52433 29954 ft 395 kts 319°
2026-04-24 04:00 34.44277 -119.56828 29981 ft 392 kts 310°
2026-04-24 04:00 34.48015 -119.61551 29978 ft 386 kts 309°
2026-04-24 04:01 34.51751 -119.66268 29985 ft 389 kts 310°
2026-04-24 04:01 34.55549 -119.70997 29986 ft 392 kts 310°
2026-04-24 04:02 34.59378 -119.75732 29986 ft 394 kts 310°
2026-04-24 04:02 34.63207 -119.80460 29986 ft 392 kts 310°
2026-04-24 04:03 34.67024 -119.85184 30024 ft 391 kts 310°
2026-04-24 04:03 34.70833 -119.89902 30027 ft 390 kts 310°
2026-04-24 04:04 34.74597 -119.94575 30037 ft 389 kts 310°
2026-04-24 04:04 34.78376 -119.99271 30027 ft 388 kts 310°
2026-04-24 04:05 34.82148 -120.03966 30025 ft 388 kts 310°
2026-04-24 04:05 34.85926 -120.08674 30032 ft 389 kts 310°
2026-04-24 04:06 34.89707 -120.13394 30038 ft 390 kts 310°
2026-04-24 04:06 34.93502 -120.18137 30045 ft 391 kts 310°
2026-04-24 04:07 34.97312 -120.22905 30037 ft 392 kts 310°
2026-04-24 04:07 35.01112 -120.27668 30044 ft 392 kts 310°
2026-04-24 04:08 35.04910 -120.32435 30039 ft 391 kts 310°
2026-04-24 04:08 35.08701 -120.37197 30037 ft 391 kts 310°
2026-04-24 04:09 35.12662 -120.41766 30044 ft 392 kts 313°
2026-04-24 04:09 35.16712 -120.46226 30049 ft 392 kts 313°
2026-04-24 04:10 35.20725 -120.50680 30057 ft 392 kts 313°
2026-04-24 04:10 35.24745 -120.55182 30054 ft 391 kts 313°
2026-04-24 04:11 35.30763 -120.61953 30052 ft 392 kts 313°
2026-04-24 04:11 35.34777 -120.66477 30044 ft 392 kts 313°
2026-04-24 04:12 35.38782 -120.70997 30053 ft 391 kts 313°
2026-04-24 04:12 35.42784 -120.75521 30042 ft 391 kts 313°
2026-04-24 04:13 35.46783 -120.80047 30065 ft 390 kts 312°
2026-04-24 04:13 35.50915 -120.84395 30068 ft 393 kts 317°
2026-04-24 04:14 35.55314 -120.88409 30066 ft 394 kts 319°
2026-04-24 04:14 35.59720 -120.92405 30065 ft 393 kts 318°
2026-04-24 04:15 35.64096 -120.96436 30071 ft 393 kts 318°
2026-04-24 04:15 35.68450 -121.00482 30062 ft 392 kts 318°
2026-04-24 04:16 35.72794 -121.04532 30065 ft 392 kts 317°
2026-04-24 04:16 35.77108 -121.08560 30066 ft 392 kts 318°
2026-04-24 04:17 35.81446 -121.12615 30068 ft 391 kts 318°
2026-04-24 04:17 35.85782 -121.16675 30070 ft 392 kts 318°
2026-04-24 04:18 35.90118 -121.20741 30065 ft 391 kts 317°
2026-04-24 04:18 35.94445 -121.24803 30074 ft 390 kts 317°
2026-04-24 04:19 35.98762 -121.28861 30082 ft 389 kts 317°
2026-04-24 04:19 36.03061 -121.32909 30071 ft 388 kts 317°
2026-04-24 04:20 36.06620 -121.36262 30076 ft 387 kts 318°
2026-04-24 04:20 36.11113 -121.39959 30091 ft 389 kts 322°
2026-04-24 04:21 36.13427 -121.41723 29641 ft 391 kts 323°
2026-04-24 04:21 36.16487 -121.44050 28919 ft 389 kts 323°
2026-04-24 04:21 36.18777 -121.45806 28432 ft 385 kts 323°
2026-04-24 04:21 36.21038 -121.47552 27973 ft 383 kts 322°
2026-04-24 04:22 36.22571 -121.48745 27674 ft 388 kts 322°
2026-04-24 04:22 36.24870 -121.50542 27212 ft 393 kts 322°
2026-04-24 04:22 36.27151 -121.52329 26760 ft 392 kts 323°
2026-04-24 04:22 36.29446 -121.54124 26321 ft 388 kts 323°
2026-04-24 04:23 36.31721 -121.55906 25895 ft 386 kts 323°
2026-04-24 04:23 36.33984 -121.57680 25463 ft 384 kts 323°
2026-04-24 04:23 36.36235 -121.59448 25037 ft 382 kts 323°
2026-04-24 04:23 36.38470 -121.61205 24609 ft 379 kts 323°
2026-04-24 04:24 36.40694 -121.62954 24213 ft 377 kts 323°
2026-04-24 04:24 36.42910 -121.64697 23804 ft 376 kts 323°
2026-04-24 04:24 36.45116 -121.66434 23335 ft 375 kts 323°
2026-04-24 04:24 36.47311 -121.68164 22863 ft 374 kts 323°
2026-04-24 04:25 36.49503 -121.69892 22394 ft 372 kts 324°
2026-04-24 04:25 36.51687 -121.71615 21918 ft 371 kts 324°
2026-04-24 04:25 36.53857 -121.73328 21453 ft 366 kts 324°
2026-04-24 04:25 36.55996 -121.75019 21003 ft 364 kts 324°
2026-04-24 04:26 36.58132 -121.76709 20565 ft 364 kts 324°
2026-04-24 04:26 36.60266 -121.78399 20116 ft 364 kts 324°
2026-04-24 04:26 36.62400 -121.80090 19694 ft 361 kts 325°
2026-04-24 04:26 36.64476 -121.81735 19258 ft 357 kts 325°
2026-04-24 04:27 36.66576 -121.83402 18838 ft 358 kts 325°
2026-04-24 04:27 36.68679 -121.85071 18415 ft 359 kts 326°
2026-04-24 04:27 36.70779 -121.86739 17952 ft 358 kts 326°
2026-04-24 04:27 36.72883 -121.88410 17483 ft 358 kts 326°
2026-04-24 04:28 36.75112 -121.89782 16985 ft 360 kts 342°
2026-04-24 04:28 36.77540 -121.90506 16554 ft 357 kts 346°
2026-04-24 04:28 36.79945 -121.91131 16081 ft 348 kts 347°
2026-04-24 04:28 36.82280 -121.91736 15616 ft 339 kts 346°
2026-04-24 04:29 36.84567 -121.92344 15175 ft 336 kts 346°
2026-04-24 04:29 36.86858 -121.92971 14755 ft 338 kts 346°
2026-04-24 04:29 36.89162 -121.93610 14324 ft 337 kts 346°
2026-04-24 04:29 36.91429 -121.94243 14007 ft 327 kts 346°
2026-04-24 04:30 36.93569 -121.94841 13901 ft 308 kts 346°
2026-04-24 04:30 36.95610 -121.95433 13776 ft 291 kts 344°
2026-04-24 04:30 36.97522 -121.96129 13446 ft 284 kts 342°
2026-04-24 04:30 36.99403 -121.96876 13083 ft 285 kts 341°
2026-04-24 04:31 37.01296 -121.97636 12732 ft 286 kts 342°
2026-04-24 04:31 37.03191 -121.98393 12375 ft 286 kts 342°
2026-04-24 04:31 37.05087 -121.99145 12019 ft 285 kts 342°
2026-04-24 04:31 37.06956 -121.99882 11663 ft 279 kts 342°
2026-04-24 04:32 37.08789 -122.00602 11306 ft 274 kts 342°
2026-04-24 04:32 37.10596 -122.01311 10965 ft 271 kts 343°
2026-04-24 04:32 37.12365 -122.02004 10629 ft 269 kts 343°
2026-04-24 04:32 37.14145 -122.02702 10297 ft 268 kts 343°
2026-04-24 04:33 37.15924 -122.03398 9960 ft 268 kts 343°
2026-04-24 04:33 37.17702 -122.04095 9599 ft 266 kts 343°
2026-04-24 04:33 37.19458 -122.04783 9230 ft 263 kts 343°
2026-04-24 04:33 37.21203 -122.05466 8866 ft 263 kts 343°
2026-04-24 04:34 37.22949 -122.06151 8518 ft 263 kts 343°
2026-04-24 04:34 37.24700 -122.06837 8188 ft 264 kts 343°
2026-04-24 04:34 37.26446 -122.07523 7890 ft 262 kts 343°
2026-04-24 04:34 37.28175 -122.08202 7602 ft 259 kts 343°
2026-04-24 04:35 37.29896 -122.08879 7350 ft 258 kts 343°
2026-04-24 04:35 37.31609 -122.09556 7025 ft 258 kts 343°
2026-04-24 04:35 37.33309 -122.10226 6701 ft 253 kts 342°
2026-04-24 04:35 37.34966 -122.10879 6455 ft 249 kts 342°
2026-04-24 04:36 37.36613 -122.11528 6119 ft 247 kts 343°
2026-04-24 04:36 37.38236 -122.12156 5764 ft 237 kts 344°
2026-04-24 04:36 37.39776 -122.12684 5464 ft 223 kts 346°
2026-04-24 04:36 37.41239 -122.13174 5164 ft 211 kts 345°
2026-04-24 04:37 37.42599 -122.13637 4963 ft 195 kts 345°
2026-04-24 04:37 37.43865 -122.14069 4679 ft 182 kts 346°
2026-04-24 04:37 37.45045 -122.14471 4458 ft 169 kts 346°
2026-04-24 04:37 37.46153 -122.14835 4246 ft 161 kts 346°
2026-04-24 04:38 37.47210 -122.15182 4128 ft 156 kts 346°
2026-04-24 04:38 37.48260 -122.15527 3923 ft 155 kts 346°
2026-04-24 04:38 37.49296 -122.15869 3725 ft 153 kts 346°
2026-04-24 04:38 37.50318 -122.16206 3524 ft 150 kts 346°
2026-04-24 04:39 37.51326 -122.16538 3333 ft 149 kts 347°
2026-04-24 04:39 37.52338 -122.16871 3166 ft 152 kts 346°
2026-04-24 04:39 37.53264 -122.17455 2924 ft 155 kts 312°
2026-04-24 04:39 37.53863 -122.18567 2777 ft 153 kts 306°
2026-04-24 04:40 37.54474 -122.19672 2600 ft 153 kts 307°
2026-04-24 04:40 37.55060 -122.20777 2393 ft 151 kts 303°
2026-04-24 04:40 37.55585 -122.21917 2202 ft 149 kts 300°
2026-04-24 04:40 37.56077 -122.23064 2006 ft 149 kts 299°
2026-04-24 04:41 37.56564 -122.24224 1864 ft 150 kts 298°
2026-04-24 04:41 37.57052 -122.25392 1778 ft 151 kts 298°
2026-04-24 04:41 37.57540 -122.26564 1598 ft 151 kts 299°
2026-04-24 04:41 37.58022 -122.27721 1398 ft 147 kts 298°
2026-04-24 04:42 37.58501 -122.28875 1197 ft 151 kts 298°
2026-04-24 04:42 37.58991 -122.30048 988 ft 150 kts 298°
2026-04-24 04:42 37.59469 -122.31193 802 ft 145 kts 297°
2026-04-24 04:42 37.59928 -122.32290 625 ft 139 kts 296°
2026-04-24 04:43 37.60373 -122.33350 479 ft 135 kts 296°
2026-04-24 04:43 37.60806 -122.34403 304 ft 135 kts 294°
2026-04-24 04:43 37.61239 -122.35439 105 ft 134 kts 295°
2026-04-24 04:43 37.61656 -122.36440 21 ft 112 kts 297°
2026-04-24 04:44 37.61920 -122.37069 22 ft 50 kts 298°
2026-04-24 04:44 37.62048 -122.37375 21 ft 36 kts 300°
2026-04-24 04:44 37.62151 -122.37622 21 ft 19 kts 292°
2026-04-24 04:44 37.62094 -122.37754 22 ft 16 kts 228°
2026-04-24 04:45 37.62083 -122.37770 21 ft 0 kts 227°
2026-04-24 04:46 37.62064 -122.37796 22 ft 13 kts 228°
2026-04-24 04:46 37.61994 -122.37897 23 ft 15 kts 228°
2026-04-24 04:46 37.61925 -122.37995 21 ft 15 kts 236°
2026-04-24 04:46 37.61929 -122.38114 23 ft 14 kts 297°
2026-04-24 04:47 37.61974 -122.38221 21 ft 13 kts 297°
2026-04-24 04:47 37.62018 -122.38327 21 ft 14 kts 297°
2026-04-24 04:47 37.62062 -122.38430 21 ft 14 kts 298°
2026-04-24 04:47 37.62122 -122.38578 21 ft 21 kts 297°
2026-04-24 04:48 37.62189 -122.38735 21 ft 20 kts 297°
2026-04-24 04:48 37.62254 -122.38888 22 ft 19 kts 298°
2026-04-24 04:48 37.62242 -122.39041 21 ft 18 kts 252°
2026-04-24 04:48 37.62167 -122.39148 21 ft 17 kts 207°
2026-04-24 04:49 37.62064 -122.39212 21 ft 16 kts 190°
2026-04-24 04:49 37.61999 -122.39122 22 ft 18 kts 116°
2026-04-24 04:49 37.61944 -122.38987 22 ft 5 kts 118°
2026-04-24 04:49 37.61945 -122.38924 23 ft 1 kts 40°
2026-04-24 04:50 37.61991 -122.38891 22 ft 4 kts 27°
2026-04-24 04:50 37.61998 -122.38887 21 ft 0 kts 27°